H1 CPF 2 NER 2025 11 22 9 326 01 glonass134 H2 1407501 9134 40315 2025 11 22 0 0 0 2025 11 25 23 45 0 900 1 1 0 0 0 1 H9 10 0 61001 0.00000 0 -9252077.329 -6803505.453 22797461.259 10 0 61001 900.00000 0 -7283732.275 -8806176.295 22818426.932 10 0 61001 1800.00000 0 -5476104.967 -10923903.757 22396895.477 10 0 61001 2700.00000 0 -3867885.899 -13100839.651 21540695.466 10 0 61001 3600.00000 0 -2487106.377 -15275781.829 20266100.418 10 0 61001 4500.00000 0 -1350160.646 -17384566.620 18597541.305 10 0 61001 5400.00000 0 -461324.855 -19362609.198 16567158.572 10 0 61001 6300.00000 0 187205.652 -21147486.653 14214200.096 10 0 61001 7200.00000 0 614760.973 -22681455.623 11584274.777 10 0 61001 8100.00000 0 851145.525 -23913798.071 8728474.773 10 0 61001 9000.00000 0 935134.896 -24802895.081 5702382.596 10 0 61001 9900.00000 0 912584.229 -25317939.349 2564982.331 10 0 61001 10800.00000 0 834228.979 -25440211.921 -622503.149 10 0 61001 11700.00000 0 753272.776 -25163867.189 -3797824.932 10 0 61001 12600.00000 0 722866.896 -24496191.211 -6898945.137 10 0 61001 13500.00000 0 793590.916 -23457321.327 -9865271.816 10 0 61001 14400.00000 0 1011044.373 -22079438.536 -12638865.154 10 0 61001 15300.00000 0 1413654.405 -20405467.141 -15165588.956 10 0 61001 16200.00000 0 2030794.815 -18487337.674 -17396182.935 10 0 61001 17100.00000 0 2881298.203 -16383887.874 -19287233.349 10 0 61001 18000.00000 0 3972425.375 -14158492.015 -20802022.116 10 0 61001 18900.00000 0 5299336.131 -11876520.013 -21911237.701 10 0 61001 19800.00000 0 6845083.636 -9602734.429 -22593534.393 10 0 61001 20700.00000 0 8581131.907 -7398735.383 -22835930.169 10 0 61001 21600.00000 0 10468373.607 -5320560.402 -22634036.969 10 0 61001 22500.00000 0 12458604.224 -3416538.770 -21992120.778 10 0 61001 23400.00000 0 14496389.652 -1725488.425 -20922992.359 10 0 61001 24300.00000 0 16521248.079 -275328.236 -19447732.757 10 0 61001 25200.00000 0 18470054.438 917839.406 -17595260.718 10 0 61001 26100.00000 0 20279566.895 1850140.753 -15401752.009 10 0 61001 27000.00000 0 21888970.378 2529823.939 -12909923.103 10 0 61001 27900.00000 0 23242331.998 2976641.101 -10168193.923 10 0 61001 28800.00000 0 24290867.256 3220748.233 -7229746.333 10 0 61001 29700.00000 0 24994924.227 3301171.287 -4151496.590 10 0 61001 30600.00000 0 25325604.746 3263904.531 -993001.284 10 0 61001 31500.00000 0 25265956.724 3159721.976 2184682.737 10 0 61001 32400.00000 0 24811689.431 3041794.047 5320163.443 10 0 61001 33300.00000 0 23971383.057 2963209.303 8352882.447 10 0 61001 34200.00000 0 22766184.435 2974504.614 11224266.404 10 0 61001 35100.00000 0 21229001.672 3121306.636 13878840.306 10 0 61001 36000.00000 0 19403230.599 3442182.759 16265282.788 10 0 61001 36900.00000 0 17341064.886 3966791.113 18337404.531 10 0 61001 37800.00000 0 15101458.425 4714407.143 20055032.231 10 0 61001 38700.00000 0 12747822.648 5692889.036 21384782.100 10 0 61001 39600.00000 0 10345552.261 6898126.575 22300708.604 10 0 61001 40500.00000 0 7959480.031 8313998.487 22784816.066 10 0 61001 41400.00000 0 5651364.398 9912842.704 22827422.877 10 0 61001 42300.00000 0 3477512.838 11656422.955 22427370.310 10 0 61001 43200.00000 0 1486638.838 13497354.608 21592070.436 10 0 61001 44100.00000 0 -281958.686 15380933.446 20337390.284 10 0 61001 45000.00000 0 -1799817.356 17247293.764 18687372.242 10 0 61001 45900.00000 0 -3050274.549 19033807.764 16673793.767 10 0 61001 46800.00000 0 -4028930.479 20677627.224 14335572.609 10 0 61001 47700.00000 0 -4743590.440 22118261.300 11718027.131 10 0 61001 48600.00000 0 -5213687.526 23300081.778 8872004.554 10 0 61001 49500.00000 0 -5469209.338 24174649.092 5852893.193 10 0 61001 50400.00000 0 -5549173.728 24702759.177 2719537.818 10 0 61001 51300.00000 0 -5499718.476 24856122.464 -466920.105 10 0 61001 52200.00000 0 -5371886.969 24618601.736 -3644253.331 10 0 61001 53100.00000 0 -5219205.615 23986954.320 -6750385.335 10 0 61001 54000.00000 0 -5095158.179 22971045.579 -9724625.935 10 0 61001 54900.00000 0 -5050666.968 21593523.647 -12508879.460 10 0 61001 55800.00000 0 -5131690.532 19888968.918 -15048799.460 10 0 61001 56700.00000 0 -5377042.363 17902554.710 -17294865.351 10 0 61001 57600.00000 0 -5816525.178 15688276.647 -19203358.449 10 0 61001 58500.00000 0 -6469461.268 13306826.881 -20737217.397 10 0 61001 59400.00000 0 -7343681.817 10823204.134 -21866756.078 10 0 61001 60300.00000 0 -8435017.935 8304161.334 -22570230.504 10 0 61001 61200.00000 0 -9727314.220 5815598.894 -22834244.683 10 0 61001 62100.00000 0 -11192963.222 3420013.061 -22653989.102 10 0 61001 63000.00000 0 -12793936.954 1174105.573 -22033309.084 10 0 61001 63900.00000 0 -14483270.695 -873346.810 -20984603.668 10 0 61001 64800.00000 0 -16206935.588 -2683276.099 -19528559.021 10 0 61001 65700.00000 0 -17906020.618 -4227688.537 -17693723.370 10 0 61001 66600.00000 0 -19519132.119 -5490557.992 -15515933.303 10 0 61001 67500.00000 0 -20984910.424 -6468213.549 -13037603.798 10 0 61001 68400.00000 0 -22244558.970 -7169208.592 -10306896.571 10 0 61001 69300.00000 0 -23244281.106 -7613680.144 -7376783.302 10 0 61001 70200.00000 0 -23937524.115 -7832228.068 -4304021.916 10 0 61001 71100.00000 0 -24286938.247 -7864363.264 -1148065.363 10 0 61001 72000.00000 0 -24265970.487 -7756591.364 2030076.655 10 0 61001 72900.00000 0 -23860027.980 -7560213.065 5169001.993 10 0 61001 73800.00000 0 -23067163.617 -7328933.459 8208085.180 10 0 61001 74700.00000 0 -21898255.871 -7116380.261 11088630.142 10 0 61001 75600.00000 0 -20376675.447 -6973634.281 13754985.822 10 0 61001 76500.00000 0 -18537452.073 -6946874.824 16155604.786 10 0 61001 77400.00000 0 -16425974.977 -7075237.967 18244025.811 10 0 61001 78300.00000 0 -14096279.346 -7388976.997 19979762.882 10 0 61001 79200.00000 0 -11608987.842 -7908002.104 21329084.482 10 0 61001 80100.00000 0 -9028990.253 -8640861.154 22265668.769 10 0 61001 81000.00000 0 -6422955.154 -9584205.598 22771122.191 10 0 61001 81900.00000 0 -3856774.534 -10722765.922 22835351.144 10 0 61001 82800.00000 0 -1393045.544 -12029840.276 22456778.568 10 0 61001 83700.00000 0 911307.468 -13468278.877 21642399.841 10 0 61001 84600.00000 0 3007172.582 -14991926.082 20407674.965 10 0 61001 85500.00000 0 4855062.675 -16547462.712 18776256.900 10 0 61002 0.00000 0 6426524.373 -18076573.770 16779559.154 10 0 61002 900.00000 0 7705084.621 -19518353.226 14456167.554 10 0 61002 1800.00000 0 8686692.011 -20811843.762 11851108.361 10 0 61002 2700.00000 0 9379635.913 -21898607.312 9014981.856 10 0 61002 3600.00000 0 9803943.667 -22725215.187 6002979.912 10 0 61002 4500.00000 0 9990281.575 -23245551.814 2873805.532 10 0 61002 5400.00000 0 9978406.016 -23422832.425 -311483.819 10 0 61002 6300.00000 0 9815230.987 -23231246.878 -3490685.255 10 0 61002 7200.00000 0 9552595.425 -22657157.568 -6601686.343 10 0 61002 8100.00000 0 9244827.076 -21699798.626 -9583701.390 10 0 61002 9000.00000 0 8946208.787 -20371445.214 -12378481.555 10 0 61002 9900.00000 0 8708457.435 -18697044.907 -14931472.730 10 0 61002 10800.00000 0 8578325.039 -16713326.619 -17192896.491 10 0 61002 11700.00000 0 8595425.986 -14467425.227 -19118731.482 10 0 61002 12600.00000 0 8790384.097 -12015080.944 -20671575.060 10 0 61002 13500.00000 0 9183378.862 -9418490.542 -21821368.207 10 0 61002 14400.00000 0 9783152.472 -6743902.018 -22545969.968 10 0 61002 15300.00000 0 10586519.045 -4059054.644 -22831571.299 10 0 61002 16200.00000 0 11578395.567 -1430572.160 -22672941.759 10 0 61002 17100.00000 0 12732351.770 1078582.090 -22073506.150 10 0 61002 18000.00000 0 14011654.081 3411482.642 -21045251.584 10 0 61002 18900.00000 0 15370758.138 5519354.555 -19608468.807 10 0 61002 19800.00000 0 16757185.835 7363335.528 -17791334.660 10 0 61002 20700.00000 0 18113707.132 8915816.978 -15629345.365 10 0 61002 21600.00000 0 19380734.684 10161311.515 -13164612.890 10 0 61002 22500.00000 0 20498831.016 11096814.133 -10445038.881 10 0 61002 23400.00000 0 21411223.743 11731645.401 -7523382.648 10 0 61002 24300.00000 0 22066224.551 12086786.293 -4456241.296 10 0 61002 25200.00000 0 22419451.924 12193735.014 -1302961.391 10 0 61002 26100.00000 0 22435766.047 12092935.550 1875497.421 10 0 61002 27000.00000 0 22090836.281 11831844.957 5017725.878 10 0 61002 27900.00000 0 21372276.797 11462720.821 8063034.413 10 0 61002 28800.00000 0 20280303.630 11040221.494 10952607.121 10 0 61002 29700.00000 0 18827885.861 10618919.059 13630619.654 10 0 61002 30600.00000 0 17040384.158 10250828.351 16045301.054 10 0 61002 31500.00000 0 14954690.608 9983054.612 18149920.522 10 0 61002 32400.00000 0 12617903.901 9855657.487 19903681.405 10 0 61002 33300.00000 0 10085592.707 9899820.366 21272506.254 10 0 61002 34200.00000 0 7419716.802 10136401.806 22229698.412 10 0 61002 35100.00000 0 4686289.538 10574930.382 22756467.596 10 0 61002 36000.00000 0 1952875.938 11213086.468 22842308.971 10 0 61002 36900.00000 0 -713972.059 12036694.660 22485227.472 10 0 61002 37800.00000 0 -3251238.669 13020229.696 21691801.644 10 0 61002 38700.00000 0 -5601822.115 14127817.502 20477083.826 10 0 61002 39600.00000 0 -7716668.902 15314692.225 18864336.436 10 0 61002 40500.00000 0 -9556575.527 16529050.667 16884607.083 10 0 61002 41400.00000 0 -11093581.768 17714228.294 14576148.430 10 0 61002 42300.00000 0 -12311896.154 18811106.509 11983692.052 10 0 61002 43200.00000 0 -13208313.555 19760650.231 9157588.805 10 0 61002 44100.00000 0 -13792106.141 20506468.178 6152831.479 10 0 61002 45000.00000 0 -14084391.391 20997286.330 3027978.595 10 0 61002 45900.00000 0 -14117003.482 21189227.894 -155999.137 10 0 61002 46800.00000 0 -13930916.057 21047800.789 -3336925.945 10 0 61002 47700.00000 0 -13574284.191 20549505.809 -6452656.194 10 0 61002 48600.00000 0 -13100190.238 19682994.905 -9442311.308 10 0 61002 49500.00000 0 -12564191.382 18449728.447 -12247491.774 10 0 61002 50400.00000 0 -12021775.441 16864102.273 -14813438.139 10 0 61002 51300.00000 0 -11525835.399 14953038.418 -17090116.239 10 0 61002 52200.00000 0 -11124272.015 12755056.837 -19033203.884 10 0 61002 53100.00000 0 -10857827.877 10318867.873 -20604958.733 10 0 61002 54000.00000 0 -10758245.690 7701545.777 -21774950.168 10 0 61002 54900.00000 0 -10846828.988 4966361.171 -22520641.296 10 0 61002 55800.00000 0 -11133465.623 2180364.515 -22827810.745 10 0 61002 56700.00000 0 -11616154.071 -588177.495 -22690807.564 10 0 61002 57600.00000 0 -12281050.865 -3272385.251 -22112636.110 10 0 61002 58500.00000 0 -13103035.181 -5809301.032 -21104871.271 10 0 61002 59400.00000 0 -14046764.798 -8142250.799 -19687407.718 10 0 61002 60300.00000 0 -15068177.156 -10222936.527 -17888049.875 10 0 61002 61200.00000 0 -16116370.907 -12013174.432 -15741952.227 10 0 61002 62100.00000 0 -17135787.924 -13486209.731 -13290922.069 10 0 61002 63000.00000 0 -18068603.667 -14627556.469 -10582599.075 10 0 61002 63900.00000 0 -18857225.697 -15435330.682 -7669528.086 10 0 61002 64800.00000 0 -19446796.081 -15920066.184 -4608143.142 10 0 61002 65700.00000 0 -19787593.754 -16104023.413 -1457682.056 10 0 61002 66600.00000 0 -19837237.299 -16020022.389 1720948.060 10 0 61002 67500.00000 0 -19562597.134 -15709850.164 4866333.408 10 0 61002 68400.00000 0 -18941338.122 -15222310.166 7917722.993 10 0 61002 69300.00000 0 -17963028.838 -14610995.286 10816183.803 10 0 61002 70200.00000 0 -16629771.398 -13931877.466 13505720.919 10 0 61002 71100.00000 0 -14956325.230 -13240813.896 15934342.522 10 0 61002 72000.00000 0 -12969718.605 -12591073.105 18055050.731 10 0 61002 72900.00000 0 -10708362.468 -12030983.429 19826740.521 10 0 61002 73800.00000 0 -8220701.200 -11601801.381 21214990.447 10 0 61002 74700.00000 0 -5563453.689 -11335888.652 22192730.603 10 0 61002 75600.00000 0 -2799514.861 -11255274.095 22740775.127 10 0 61002 76500.00000 0 4398.244 -11370661.604 22848208.672 10 0 61002 77400.00000 0 2780260.883 -11680926.787 22512618.490 10 0 61002 78300.00000 0 5461313.497 -12173125.465 21740166.205 10 0 61002 79200.00000 0 7984587.985 -12823015.986 20545496.055 10 0 61002 80100.00000 0 10293283.300 -13596076.020 18951479.122 10 0 61002 81000.00000 0 12338891.799 -14448973.578 16988796.189 10 0 61002 81900.00000 0 14082987.209 -15331432.541 14695364.944 10 0 61002 82800.00000 0 15498598.532 -16188415.642 12115620.647 10 0 61002 83700.00000 0 16571111.028 -16962533.596 9299662.601 10 0 61002 84600.00000 0 17298655.068 -17596578.476 6302282.085 10 0 61002 85500.00000 0 17691965.261 -18036073.171 3181890.432 10 0 61003 0.00000 0 17773715.027 -18231727.204 -631.030 10 0 61003 900.00000 0 17577354.532 -18141692.539 -3183137.227 10 0 61003 1800.00000 0 17145501.606 -17733520.853 -6303452.080 10 0 61003 2700.00000 0 16527955.206 -16985736.981 -9300607.093 10 0 61003 3600.00000 0 15779417.265 -15888959.096 -12116054.907 10 0 61003 4500.00000 0 14957021.881 -14446516.428 -14694833.356 10 0 61003 5400.00000 0 14117779.031 -12674537.120 -16986654.931 10 0 61003 6300.00000 0 13316043.401 -10601501.990 -18946898.733 10 0 61003 7200.00000 0 12601117.484 -8267283.179 -20537484.536 10 0 61003 8100.00000 0 12015091.644 -5721708.865 -21727611.590 10 0 61003 9000.00000 0 11591012.953 -3022715.347 -22494348.156 10 0 61003 9900.00000 0 11351459.866 -234165.146 -22823061.245 10 0 61003 10800.00000 0 11307581.734 2576576.628 -22707679.714 10 0 61003 11700.00000 0 11458641.936 5341205.823 -22150787.419 10 0 61003 12600.00000 0 11792081.665 7993075.722 -21163546.625 10 0 61003 13500.00000 0 12284099.313 10469718.934 -19765455.187 10 0 61003 14400.00000 0 12900718.704 12715191.068 -17983944.074 10 0 61003 15300.00000 0 13599299.180 14682140.626 -15853824.697 10 0 61003 16200.00000 0 14330422.404 16333521.582 -13416598.037 10 0 61003 17100.00000 0 15040075.493 17643880.265 -10719639.859 10 0 61003 18000.00000 0 15672038.267 18600166.092 -7815278.313 10 0 61003 18900.00000 0 16170374.408 19202035.405 -4759781.877 10 0 61003 19800.00000 0 16481922.510 19461638.579 -1612276.906 10 0 61003 20700.00000 0 16558683.395 19402901.636 1566384.894 10 0 61003 21600.00000 0 16360004.592 19060334.131 4714788.119 10 0 61003 22500.00000 0 15854471.517 18477414.243 7772123.276 10 0 61003 23400.00000 0 15021426.907 17704618.969 10679343.080 10 0 61003 24300.00000 0 13852055.385 16797181.566 13380284.729 10 0 61003 25200.00000 0 12349987.625 15812669.246 15822738.027 10 0 61003 26100.00000 0 10531398.134 14808481.322 17959440.278 10 0 61003 27000.00000 0 8424591.049 13839371.123 19748980.083 10 0 61003 27900.00000 0 6069089.074 12955094.054 21156593.730 10 0 61003 28800.00000 0 3514260.788 12198279.204 22154839.470 10 0 61003 29700.00000 0 817540.355 11602612.946 22724136.918 10 0 61003 30600.00000 0 -1957689.645 11191410.564 22853160.877 10 0 61003 31500.00000 0 -4744467.399 10976636.361 22539081.117 10 0 61003 32400.00000 0 -7474777.441 10958414.551 21787642.074 10 0 61003 33300.00000 0 -10082129.966 11125053.257 20613079.097 10 0 61003 34200.00000 0 -12504088.038 11453582.720 19037870.654 10 0 61003 35100.00000 0 -14684638.250 11910787.364 17092328.938 10 0 61003 36000.00000 0 -16576305.872 12454690.342 14814034.499 10 0 61003 36900.00000 0 -18141925.352 13036429.677 12247123.792 10 0 61003 37800.00000 0 -19355990.756 13602447.786 9441441.874 10 0 61003 38700.00000 0 -20205527.998 14096902.056 6451575.692 10 0 61003 39600.00000 0 -20690450.626 14464193.777 3335786.542 10 0 61003 40500.00000 0 -20823382.965 14651506.778 154862.994 10 0 61003 41400.00000 0 -20628957.402 14611245.952 -3029082.176 10 0 61003 42300.00000 0 -20142615.438 14303269.619 -6153845.649 10 0 61003 43200.00000 0 -19408964.015 13696818.180 -9158371.539 10 0 61003 44100.00000 0 -18479758.082 12772054.641 -11983967.017 10 0 61003 45000.00000 0 -17411596.830 11521149.376 -14575469.403 10 0 61003 45900.00000 0 -16263433.437 9948861.548 -16882339.805 10 0 61003 46800.00000 0 -15094006.017 8072591.555 -18859660.308 10 0 61003 47700.00000 0 -13959300.528 5921902.008 -20469014.181 10 0 61003 48600.00000 0 -12910154.369 3537527.736 -21679231.601 10 0 61003 49500.00000 0 -11990102.631 969917.203 -22466986.698 10 0 61003 50400.00000 0 -11233557.826 -1722632.440 -22817235.247 10 0 61003 51300.00000 0 -10664398.882 -4476167.537 -22723485.953 10 0 61003 52200.00000 0 -10295027.143 -7223504.943 -22187901.880 10 0 61003 53100.00000 0 -10125926.830 -9896792.190 -21221232.056 10 0 61003 54000.00000 0 -10145745.799 -12430094.290 -19842576.594 10 0 61003 54900.00000 0 -10331890.428 -14761900.331 -18078991.797 10 0 61003 55800.00000 0 -10651606.989 -16837446.965 -15964944.532 10 0 61003 56700.00000 0 -11063501.790 -18610764.233 -13541627.794 10 0 61003 57600.00000 0 -11519434.407 -20046361.063 -10856151.606 10 0 61003 58500.00000 0 -11966703.316 -21120483.088 -7960625.486 10 0 61003 59400.00000 0 -12350431.529 -21821893.235 -4911150.329 10 0 61003 60300.00000 0 -12616052.105 -22152145.307 -1766738.938 10 0 61003 61200.00000 0 -12711789.614 -22125341.502 1411814.529 10 0 61003 62100.00000 0 -12591034.273 -21767385.921 4563095.296 10 0 61003 63000.00000 0 -12214510.032 -21114766.476 7626237.667 10 0 61003 63900.00000 0 -11552146.598 -20212916.697 10542082.470 10 0 61003 64800.00000 0 -10584577.523 -19114225.804 13254301.435 10 0 61003 65700.00000 0 -9304201.741 -17875779.509 15710468.402 10 0 61003 66600.00000 0 -7715763.657 -16556924.816 17863058.181 10 0 61003 67500.00000 0 -5836426.357 -15216759.123 19670355.171 10 0 61003 68400.00000 0 -3695332.949 -13911646.979 21097255.317 10 0 61003 69300.00000 0 -1332671.793 -12692866.857 22115946.655 10 0 61003 70200.00000 0 1201718.508 -11604485.176 22706455.552 10 0 61003 71100.00000 0 3850149.652 -10681545.812 22857047.858 10 0 61003 72000.00000 0 6549218.205 -9948650.827 22564476.380 10 0 61003 72900.00000 0 9232188.569 -9418992.409 21834068.501 10 0 61003 73800.00000 0 11831527.953 -9093877.747 20679650.455 10 0 61003 74700.00000 0 14281489.813 -8962768.450 19123307.503 10 0 61003 75600.00000 0 16520639.315 -9003834.691 17194982.321 10 0 61003 76500.00000 0 18494215.814 -9185002.690 14931917.033 10 0 61003 77400.00000 0 20156233.102 -9465453.033 12377947.650 10 0 61003 78300.00000 0 21471228.344 -9797507.710 9582662.970 10 0 61003 79200.00000 0 22415584.783 -10128826.566 6600443.245 10 0 61003 80100.00000 0 22978370.821 -10404819.829 3489397.045 10 0 61003 81000.00000 0 23161658.565 -10571173.257 310217.510 10 0 61003 81900.00000 0 22980307.173 -10576376.888 -2875018.571 10 0 61003 82800.00000 0 22461219.573 -10374147.588 -6004083.546 10 0 61003 83700.00000 0 21642104.086 -9925639.763 -9015837.268 10 0 61003 84600.00000 0 20569794.259 -9201347.605 -11851444.419 10 0 61003 85500.00000 0 19298199.513 -8182615.632 -14455544.550 10 0 61004 0.00000 0 17885975.446 -6862691.568 -16777349.664 10 0 61004 900.00000 0 16394013.699 -5247274.798 -18771647.407 10 0 61004 1800.00000 0 14882861.486 -3354538.324 -20399686.160 10 0 61004 2700.00000 0 13410178.875 -1214620.905 -21629928.515 10 0 61004 3600.00000 0 12028343.991 1131387.099 -22438655.618 10 0 61004 4500.00000 0 10782306.551 3632921.314 -22810412.783 10 0 61004 5400.00000 0 9707779.563 6231821.340 -22738288.973 10 0 61004 6300.00000 0 8829843.733 8864529.608 -22224026.499 10 0 61004 7200.00000 0 8162021.043 11464518.585 -21277960.818 10 0 61004 8100.00000 0 7705853.648 13964844.865 -19918793.624 10 0 61004 9000.00000 0 7451002.719 16300724.074 -18173205.521 10 0 61004 9900.00000 0 7375860.052 18412020.319 -16075317.471 10 0 61004 10800.00000 0 7448643.891 20245548.072 -13666012.794 10 0 61004 11700.00000 0 7628930.532 21757092.745 -10992133.759 10 0 61004 12600.00000 0 7869555.551 22913068.174 -8105568.927 10 0 61004 13500.00000 0 8118803.596 23691744.582 -5062249.017 10 0 61004 14400.00000 0 8322794.232 24083998.381 -1921070.460 10 0 61004 15300.00000 0 8427963.647 24093554.860 1257233.128 10 0 61004 16200.00000 0 8383538.535 23736715.596 4411250.658 10 0 61004 17100.00000 0 8143899.029 23041583.300 7480063.295 10 0 61004 18000.00000 0 7670732.421 22046817.220 10404402.943 10 0 61004 18900.00000 0 6934888.023 20799971.108 13127778.674 10 0 61004 19800.00000 0 5917855.806 19355482.562 15597550.964 10 0 61004 20700.00000 0 4612806.736 17772396.561 17765934.479 10 0 61004 21600.00000 0 3025150.431 16111916.668 19590911.482 10 0 61004 22500.00000 0 1172585.301 14434884.371 21037039.336 10 0 61004 23400.00000 0 -915363.192 12799289.990 22076137.276 10 0 61004 24300.00000 0 -3198299.753 11257917.523 22687839.459 10 0 61004 25200.00000 0 -5626375.351 9856220.530 22860003.400 10 0 61004 26100.00000 0 -8142106.690 8630517.220 22588965.083 10 0 61004 27000.00000 0 -10682526.669 7606580.094 21879634.482 10 0 61004 27900.00000 0 -13181579.356 6798679.773 20745427.824 10 0 61004 28800.00000 0 -15572662.106 6209124.175 19208035.742 10 0 61004 29700.00000 0 -17791210.462 5828313.842 17297029.464 10 0 61004 30600.00000 0 -19777218.730 5635312.741 15049310.309 10 0 61004 31500.00000 0 -21477590.652 5598912.047 12508411.099 10 0 61004 32400.00000 0 -22848220.817 5679143.227 9723661.373 10 0 61004 33300.00000 0 -23855717.946 5829177.151 6749231.539 10 0 61004 34200.00000 0 -24478695.703 5997528.760 3643074.264 10 0 61004 35100.00000 0 -24708574.759 6130472.992 465784.123 10 0 61004 36000.00000 0 -24549860.605 6174567.846 -2720601.106 10 0 61004 36900.00000 0 -24019884.188 6079175.201 -5853832.304 10 0 61004 37800.00000 0 -23148015.869 5798869.654 -8872687.754 10 0 61004 38700.00000 0 -21974386.176 5295630.253 -11718192.138 10 0 61004 39600.00000 0 -20548168.494 4540719.358 -14334789.497 10 0 61004 40500.00000 0 -18925497.872 3516166.626 -16671445.082 10 0 61004 41400.00000 0 -17167115.828 2215793.461 -18682652.900 10 0 61004 42300.00000 0 -15335842.626 645733.519 -20329328.122 10 0 61004 43200.00000 0 -13493985.405 -1175573.121 -21579566.571 10 0 61004 44100.00000 0 -11700792.627 -3217911.645 -22409256.761 10 0 61004 45000.00000 0 -10010062.511 -5440326.993 -22802533.462 10 0 61004 45900.00000 0 -8468005.698 -7792616.721 -22752065.375 10 0 61004 46800.00000 0 -7111450.663 -10217218.661 -22259173.164 10 0 61004 47700.00000 0 -5966465.235 -12651413.497 -21333777.483 10 0 61004 48600.00000 0 -5047449.312 -15029749.672 -19994180.082 10 0 61004 49500.00000 0 -4356733.698 -17286589.417 -18266684.123 10 0 61004 50400.00000 0 -3884698.564 -19358670.156 -16185062.745 10 0 61004 51300.00000 0 -3610403.299 -21187575.608 -13789887.559 10 0 61004 52200.00000 0 -3502698.362 -22722015.203 -11127730.998 10 0 61004 53100.00000 0 -3521770.051 -23919818.780 -8250258.570 10 0 61004 54000.00000 0 -3621051.497 -24749565.644 -5213228.746 10 0 61004 54900.00000 0 -3749418.525 -25191782.413 -2075419.547 10 0 61004 55800.00000 0 -3853577.672 -25239661.828 1102497.948 10 0 61004 56700.00000 0 -3880546.186 -24899274.435 4259118.321 10 0 61004 57600.00000 0 -3780120.393 -24189265.710 7333471.573 10 0 61004 58500.00000 0 -3507229.565 -23140052.089 10266182.665 10 0 61004 59400.00000 0 -3024077.307 -21792549.607 13000599.998 10 0 61004 60300.00000 0 -2301981.247 -20196487.726 15483872.630 10 0 61004 61200.00000 0 -1322834.081 -18408377.584 17667956.962 10 0 61004 62100.00000 0 -80124.428 -16489217.823 19510534.854 10 0 61004 63000.00000 0 1420526.372 -14502031.767 20975826.629 10 0 61004 63900.00000 0 3161335.732 -12509336.558 22035284.007 10 0 61004 64800.00000 0 5112843.291 -10570647.873 22668149.924 10 0 61004 65700.00000 0 7234889.269 -8740122.535 22861874.227 10 0 61004 66600.00000 0 9478050.276 -7064436.233 22612376.421 10 0 61004 67500.00000 0 11785476.199 -5580984.272 21924149.080 10 0 61004 68400.00000 0 14095054.846 -4316480.559 20810198.124 10 0 61004 69300.00000 0 16341816.812 -3286014.017 19291818.956 10 0 61004 70200.00000 0 18460482.269 -2492603.040 17398210.454 10 0 61004 71100.00000 0 20388044.470 -1927268.023 15165931.936 10 0 61004 72000.00000 0 22066282.068 -1569620.340 12638211.544 10 0 61004 72900.00000 0 23444094.366 -1388944.164 9864117.751 10 0 61004 73800.00000 0 24479560.051 -1345726.240 6897609.004 10 0 61004 74700.00000 0 25141630.935 -1393569.085 3796479.649 10 0 61004 75600.00000 0 25411387.209 -1481406.025 621223.024 10 0 61004 76500.00000 0 25282799.226 -1555922.785 -2566164.970 10 0 61004 77400.00000 0 24762961.930 -1564080.857 -5703416.708 10 0 61004 78300.00000 0 23871790.925 -1455632.952 -8729231.860 10 0 61004 79200.00000 0 22641192.675 -1185520.935 -11584497.943 10 0 61004 80100.00000 0 21113744.307 -716051.595 -14213466.129 10 0 61004 81000.00000 0 19340939.897 -18755.441 -16564857.114 10 0 61004 81900.00000 0 17381078.863 924152.360 -18592873.782 10 0 61004 82800.00000 0 15296887.411 2118772.116 -20258099.687 10 0 61004 83700.00000 0 13152975.009 3559023.780 -21528265.401 10 0 61004 84600.00000 0 11013234.400 5226676.121 -22378868.046 10 0 61004 85500.00000 0 8938295.248 7091899.078 -22793632.768 99